Location: *
(45.0825°S, 177.9985°W)
Time: 03:18:48
(UTC+00:00)

Daily predictions for brighter satellites

Satellite Brightness Start Highest point End
(mag) Time Altitude Azimuth Time Altitude Azimuth Time Altitude Azimuth
Cosmos 1302 Rocket 4.1 04:44:28 10° N 04:49:40 68° ENE 04:54:56 10° SSE
COSMOS 2406 3.6 04:46:41 10° N 04:52:04 46° ENE 04:57:31 10° SE
COSMO-SKYMED 1 2.6 04:48:53 10° NNE 04:53:13 67° ESE 04:57:38 10° S
Cosmos 2173 Rocket 4.3 04:53:29 10° S 04:59:42 49° ESE 05:05:45 10° NNE
Cosmos 1833 Rocket 2.7 04:54:08 10° NNW 04:59:49 85° ENE 05:05:33 10° SSE
Cosmos 1782 3.6 04:57:09 10° S 05:00:45 31° ESE 05:04:18 10° NE
SJ-12 4.0 04:59:43 10° SSE 05:03:58 88° ENE 05:08:07 10° NNW
USA 305 2.9 05:01:39 10° SW 05:05:51 60° SSE 05:10:01 10° ENE
Cosmos 1992 Rocket 4.5 05:01:07 10° N 05:06:01 42° ENE 05:10:58 10° SE
SeaSat 1 3.6 05:02:02 10° SSE 05:06:44 42° SW 05:11:21 10° WNW
Cosmos 1486 Rocket 4.4 05:02:10 10° S 05:07:21 45° ESE 05:12:29 10° NE
CZ-2C R/B 4.2 05:02:29 10° NNW 05:07:46 42° W 05:13:03 10° SSW
Cosmos 1727 Rocket 4.0 05:02:54 10° N 05:09:09 85° E 05:15:27 10° S
Cosmos 1933 3.5 05:05:29 10° S 05:09:30 51° ESE 05:13:28 10° NNE
Cosmos 2278 4.4 05:04:40 10° S 05:09:49 33° SE 05:14:55 10° ENE
Lacrosse 5 rocket 3.2 05:07:29 10° SSW 05:10:03 16° S 05:12:32 10° SE
Cosmos 192 4.5 05:05:11 10° NNW 05:10:09 83° WSW 05:15:12 10° SSE
SMAP 4.5 05:07:17 10° SE 05:10:36 19° E 05:13:52 10° NE
Cosmos 1939 Rocket 3.6 05:07:37 10° SSE 05:11:08 31° E 05:14:36 10° NNE
Cosmos 1151 Rocket 4.4 05:14:07 10° SSE 05:17:11 18° ESE 05:20:12 10° ENE
Cosmos 1076 Rocket 3.5 05:14:08 10° N 05:18:30 72° E 05:22:54 10° SSE
BREEZE-M DEB (TANK) 3.2 05:12:08 10° WSW 05:21:31 67° NW 05:24:49 10° NE
Cosmos 1802 Rocket 4.2 05:15:37 10° S 05:22:01 57° ESE 05:28:21 10° NNE
Meteor 2-3 Rocket 3.7 05:17:17 10° N 05:22:54 76° E 05:28:39 10° SSE
Cosmos 1459 Rocket 4.0 05:16:58 10° S 05:23:13 70° E 05:29:28 10° NNE
USA 281 4.1 05:21:32 10° SE 05:27:08 28° ENE 05:32:38 10° NNE
Cosmos 968 Rocket 4.1 05:21:52 10° SSW 05:27:09 62° WNW 05:32:19 10° N
Orbus 7S? 4.4 05:23:49 10° SW 05:27:12 21° SSE 05:28:30 17° SE
ATLAS 2AS CENTAUR R/B 3.5 05:21:20 10° SW 05:28:17 60° WNW 05:35:40 10° NNE
CZ-4B R/B 4.2 05:27:14 10° SSE 05:31:45 84° WSW 05:36:04 10° NNW
Cosmos 1812 2.8 05:29:01 10° S 05:32:50 51° ESE 05:36:36 10° NNE
Cosmos 2221 4.0 05:29:06 10° SSW 05:33:19 42° W 05:37:29 10° NNW
Cosmos 2100 Rocket 4.1 05:29:28 10° S 05:35:51 87° W 05:42:05 10° N
CZ-4B R/B 3.7 05:34:48 18° SE 05:36:45 28° E 05:40:10 10° NNE
Cosmos 1503 Rocket 4.2 05:32:13 10° S 05:37:17 47° ESE 05:42:19 10° NE
SJ 16-02 2.4 05:33:37 10° S 05:37:20 25° ESE 05:39:38 17° ENE
CZ-2C R/B 3.7 05:32:39 10° S 05:37:22 53° WSW 05:42:11 10° NNW
Cosmos 1980 Rocket 2.1 05:35:14 10° SSW 05:40:55 84° ESE 05:46:33 10° NNE
Meteor 2-6 Rocket 4.5 05:35:59 10° S 05:41:23 43° ESE 05:46:34 10° NE
CZ-4C R/B 3.5 05:41:30 10° NE 05:44:26 32° ESE 05:47:28 10° S
Meteor 1-26 Rocket 4.5 05:40:56 10° SSW 05:47:05 82° W 05:53:05 10° N
USA 306 3.0 05:43:45 10° WSW 05:47:58 75° NW 05:52:10 10° NE
DELTA 2 R/B (1) 4.5 05:42:48 10° NW 05:48:01 39° NNE 05:51:36 19° ENE
Aureole 1 Rocket 4.0 05:41:57 10° SSW 05:49:15 88° WNW 05:54:47 10° NNE
H-2A R/B 4.3 05:52:26 11° SSE 05:52:26 11° SSE 05:52:46 10° SSE
Cosmos 2322 Rocket 3.2 05:45:36 10° S 05:50:16 25° SE 05:51:23 23° ESE
RESURS DK-1 2.3 05:47:33 10° SSW 05:51:48 89° NW 05:55:58 10° NNE
USA 307 2.9 05:49:02 10° WSW 05:53:17 79° NW 05:56:49 14° NE
Cosmos 2082 Rocket 2.2 05:48:29 10° NNW 05:54:08 85° WSW 05:59:36 11° SSE
Cosmos 2369 4.1 05:50:45 10° SSW 05:56:28 66° WNW 06:02:05 10° NNE
Cosmos 1697 Rocket 4.3 05:53:14 10° SW 05:58:26 37° WNW 06:03:36 10° N
H-2A R/B 2.0 05:55:24 11° SSE 06:00:10 53° E 06:05:00 10° N
USA 215 3.2 05:53:57 10° ENE 06:00:33 78° SE 06:07:11 10° SW
Cosmos 2333 Rocket 4.0 05:57:54 10° S 05:59:59 14° SSE 05:59:59 14° SSE
Cosmos 2123 Rocket 4.0 05:56:00 10° N 06:02:22 87° E 06:08:49 10° S
ERBS 2.6 06:00:20 10° SW 06:03:04 41° SSE 06:03:04 41° SSE
Cosmos 1862 3.2 06:00:37 10° N 06:04:34 68° E 06:07:13 20° SSE
Cosmos 1766 Rocket 4.0 06:00:41 10° NNE 06:04:40 36° E 06:04:50 36° E
Cosmos 2061 Rocket 4.0 05:58:53 10° S 06:05:22 85° E 06:11:41 10° N
Lacrosse 5 2.7 06:01:02 10° SW 06:05:40 32° SSE 06:06:47 29° SE
Cosmos 1725 Rocket 4.0 05:59:21 10° S 06:05:43 88° E 06:12:02 10° N
Okean 3 Rocket 4.4 06:02:00 10° NNE 06:05:27 31° ENE 06:05:27 31° ENE
CZ-2C R/B 3.2 06:04:34 10° NW 06:07:10 17° N 06:08:37 14° NNE
Cosmos 2219 Rocket 4.2 06:07:53 10° SSE 06:08:49 12° SSE 06:08:49 12° SSE
ADEOS 3.6 06:05:06 10° SSE 06:10:26 86° WSW 06:15:42 10° NNW
CORIOLIS 4.2 06:05:10 11° SSE 06:10:28 58° E 06:15:52 10° N
FengYun 1-2 T 4.3 06:04:59 10° SSE 06:10:37 82° WSW 06:16:09 10° NNW
NOAA 12 4.4 06:05:45 10° S 06:11:06 71° WSW 06:16:22 10° NNW
Cosmos 2084 3.6 06:10:04 10° NNW 06:14:54 77° NE 06:16:41 39° SE
Cosmos 967 Rocket 4.5 06:12:55 10° NW 06:19:12 83° SW 06:23:15 24° SSE
IRIDIUM 103 4.3 06:18:22 10° NNE 06:23:30 56° E 06:27:48 15° SSE
USA 308 3.8 06:20:02 10° WSW 06:24:06 46° NW 06:26:32 21° NNE
AQUARIUS 4.1 06:25:01 27° SSE 06:27:32 86° ENE 06:32:04 10° NNW
SL-16 R/B 2.2 06:26:13 10° SSW 06:31:54 60° ESE 06:33:22 45° ENE
NOAA 6 3.9 06:29:17 26° SSE 06:32:17 78° ENE 06:37:26 10° N
GEOS 3 Rocket 4.4 06:38:59 35° NE 06:38:59 35° NE 06:42:53 10° N
Cosmos 2237 4.5 06:32:51 10° SSW 06:37:58 47° SE 06:37:58 47° SE
Cosmos 1777 Rocket 3.8 06:34:34 10° SSW 06:39:53 84° ESE 06:42:24 32° NNE
IRIDIUM 106 4.2 06:36:30 10° N 06:41:45 82° E 06:45:56 17° S
SMAP 3.8 06:44:40 16° S 06:48:15 52° WSW 06:52:48 10° NNW
Lacrosse 5 rocket 3.2 06:46:30 10° SW 06:48:05 20° SSW 06:48:05 20° SSW
Cosmos 2360 Rocket 3.3 06:48:01 10° SSW 06:51:15 30° S 06:51:15 30° S
Cosmos 2233 Rocket 4.4 06:47:51 10° SSW 06:54:05 62° W 07:00:18 10° N
Cosmos 1151 Rocket 4.0 06:50:44 10° SSW 06:55:01 47° W 06:59:13 10° NNW
Cosmos 1447 Rocket 4.5 06:49:39 10° N 06:55:49 82° W 07:02:05 10° S
CZ-4B DEB 4.1 06:59:36 78° NE 06:59:36 78° NE 07:04:49 10° NNW
ATLAS 5 CENTAUR R/B 4.3 06:56:49 10° N 06:59:37 21° NNE 06:59:37 21° NNE
SL-8 R/B 4.2 06:59:08 10° WNW 07:03:01 57° NW 07:03:01 57° NW
Meteor 1-27 Rocket 3.6 06:59:29 10° S 07:04:59 85° SSW 07:04:59 85° SSW
Cosmos 1891 Rocket 4.5 07:00:47 10° S 07:06:48 72° SE 07:06:48 72° SE
USA 281 3.6 07:08:10 27° SSE 07:12:00 63° WSW 07:18:30 10° NW
ARGOS 3.4 07:12:25 58° SSW 07:13:15 67° WSW 07:18:36 10° NNW
SJ 16-02 2.8 07:11:54 10° SW 07:15:58 35° WNW 07:16:45 32° NW
Cosmos 2322 Rocket 3.0 07:29:06 10° SSW 07:33:15 46° SW 07:33:15 46° SW
Cosmos 2082 Rocket 4.5 07:35:25 10° W 07:39:07 17° SW 07:41:28 14° SSW
H-2A R/B 4.2 07:36:01 12° SSW 07:39:14 21° WSW 07:42:54 10° WNW
Cosmos 2333 Rocket 4.3 07:40:40 10° SSW 07:42:01 18° SSW 07:42:01 18° SSW
Lacrosse 5 3.9 07:43:55 10° SW 07:46:00 24° SW 07:46:00 24° SW
SL-16 R/B 4.3 08:11:14 10° SW 08:15:20 22° W 08:15:20 22° W
